Location: Fort Worth, Tx
(32.7431°N, 97.3695°W)
Time: 16:46:56
(UTC-04:00)

A-11 Canister half - Pass Details

Date: 25 February 2024
Orbit: 1525 x 1683 km, 47.3° (Epoch: 21 April)

Event Time Altitude Azimuth Distance (km) Brightness Sun altitude
Exits shadow 06:03:42 43° 251° (WSW) 2,048 9.1 -25.7°
Maximum altitude 06:05:09 46° 228° (SW) 1,982 9.2 -25.4°
Drops below altitude 10° 06:14:01 10° 159° (SSE) 3,757 11.2 -23.5°
Sets 06:17:17 0° 153° (SSE) 4,760 11.9 -22.9°
